{"data":{"norad_id":52645,"intl_designator":"2022-052AZ","name":"STARLINK-3973","alt_names":[],"object_type":"PAYLOAD","status":"ACTIVE","operator":null,"country":"US","launch_date":"2022-05-14","launch_site_code":"AFETR","launch_vehicle":null,"mission":null,"orbit_class":"UNKNOWN","rcs_meters":null,"size_class":null,"mass_kg":null,"dimensions":null,"purposes":["comms"],"wikipedia_slug":null,"has_3d_model":false,"image_url":null,"decayed_at":null,"tle_current":{"epoch":"2026-09-19T05:43:57.289728Z","epoch_age_seconds":175404,"freshness":"STALE","line1":"1 52645U 22052AZ  26262.23885752  .00000643  00000+0  32480-4 0  9994","line2":"2 52645  53.1594  96.6756 0001166  90.8105 269.3030 15.31704741240537","mean_motion":15.31704741,"eccentricity":0.0001166,"inclination_deg":53.1594,"raan_deg":96.6756,"arg_perigee_deg":90.8105,"mean_anomaly_deg":269.303,"bstar":3.248e-5,"rev_number":24053,"period_min":94.012896967327,"perigee_km":469.92728517803,"apogee_km":471.52443999758,"semimajor_km":6848.8628625878,"source":"CELESTRAK","updated_at":"2026-09-20T09:00:40.098958Z"}}}